Find Starlink 31905

NORAD ID: 59896 Int'l Des: 2024-100 Owner: SPXS Country: US Constellation: starlink operational
LEOCIRCULAR

現在のビュー

3D地球を読み込み中...

About Starlink 31905

Starlink 31905 (NORAD 59896) is a starlink constellation satellite (v2 mini) launched May 28, 2024 by SPXS of US. It operates in LEO, CIRCULAR orbit with a mass of 730.00 kg.

Starlink 31905について

説明を読み込み中...

次回通過

Passes for default location (London). Set your location on the main map for personalized predictions.

高度履歴

Loading altitude history...

軌道要素

1 59896U 24100M 26193.23770670 .00003672 00000-0 14280-3 0 9993
2 59896 43.0073 138.6669 0002138 278.1534 81.9075 15.27603254120243
Epoch: Jul 12, 2026 • Age: 16 hours

現在のステータス

高度 487.5 km
遠地点 / 近地点 N/A
速度 7.63 km/s
衛星直下点 43.04°N, 37.8°W
打ち上げ日 May 28, 2024
運用期間 2.1 years
タイプ internet

技術仕様

分類 Payload
質量 730.00 kg
乾燥質量 700.00 kg
総質量 730.00 kg
長さ 0.30 m
直径 4.10 m
スパン 29.00 m
形状 Box + pan
製造者 SPXS
バスタイプ Starlink V2M
フェーズステータス In Orbit
所有者/国 SPXS/US

Most Searched